| time (UTC) | temp F | wind direction | speed MPH | gust MPH | rain 1hr in | rain 24hr in | rain mn in | humidity % | barometer mb |
| 20260504015007 | 43 | 217 | 0.0 | 0.0 | 0.00 | 0.37 | 0.19 | 67 | 1010.9 |
| 20260504014518 | 43 | 217 | 0.0 | 0.0 | 0.00 | 0.38 | 0.19 | 67 | 1010.9 |
| 20260504014011 | 44 | 217 | 0.0 | 0.0 | 0.00 | 0.39 | 0.19 | 67 | 1010.9 |
| 20260504013508 | 44 | 217 | 0.0 | 0.0 | 0.00 | 0.40 | 0.19 | 67 | 1010.8 |
| 20260504013023 | 44 | 217 | 0.0 | 0.0 | 0.00 | 0.41 | 0.19 | 67 | 1010.8 |
| 20260504012510 | 45 | 217 | 0.0 | 0.0 | 0.00 | 0.43 | 0.19 | 65 | 1010.7 |
| 20260504012011 | 45 | 217 | 0.0 | 0.0 | 0.00 | 0.44 | 0.19 | 63 | 1010.7 |
| 20260504011524 | 46 | 217 | 0.0 | 0.0 | 0.00 | 0.45 | 0.19 | 64 | 1010.6 |
| 20260504011010 | 46 | 217 | 0.0 | 0.0 | 0.00 | 0.46 | 0.19 | 60 | 1010.4 |
| 20260504010507 | 47 | 217 | 0.0 | 0.0 | 0.00 | 0.47 | 0.19 | 58 | 1010.4 |
| 20260504010028 | 47 | 217 | 0.0 | 2.0 | 0.00 | 0.47 | 0.19 | 57 | 1010.3 |
| 20260504005507 | 47 | 217 | 0.0 | 2.0 | 0.00 | 0.48 | 0.19 | 56 | 1010.3 |
| 20260504005004 | 48 | 217 | 0.0 | 2.0 | 0.00 | 0.49 | 0.19 | 56 | 1010.1 |
| 20260504004521 | 48 | 217 | 0.0 | 2.0 | 0.00 | 0.49 | 0.19 | 54 | 1010.1 |
| 20260504004011 | 48 | 217 | 0.0 | 2.0 | 0.00 | 0.49 | 0.19 | 52 | 1009.9 |
| 20260504003509 | 49 | 217 | 0.0 | 2.0 | 0.00 | 0.50 | 0.19 | 53 | 1009.8 |
| 20260504003021 | 49 | 217 | 1.0 | 2.0 | 0.00 | 0.51 | 0.19 | 52 | 1009.7 |
| 20260504002509 | 49 | 217 | 0.0 | 2.0 | 0.00 | 0.54 | 0.19 | 52 | 1009.6 |
| 20260504002007 | 49 | 222 | 1.0 | 3.0 | 0.00 | 0.54 | 0.19 | 51 | 1009.6 |
| 20260504001524 | 50 | 233 | 1.0 | 3.0 | 0.00 | 0.54 | 0.19 | 51 | 1009.5 |
| 20260504001008 | 50 | 226 | 1.0 | 3.0 | 0.00 | 0.54 | 0.19 | 50 | 1009.5 |
| 20260504000507 | 50 | 229 | 0.0 | 3.0 | 0.00 | 0.55 | 0.19 | 50 | 1009.4 |
| 20260504000025 | 50 | 223 | 0.0 | 2.0 | 0.00 | 0.55 | 0.19 | 51 | 1009.3 |
| 20260503235508 | 50 | 226 | 1.0 | 3.0 | 0.00 | 0.55 | 0.19 | 49 | 1009.3 |
| 20260503235011 | 51 | 230 | 1.0 | 3.0 | 0.00 | 0.55 | 0.19 | 48 | 1009.2 |
| 20260503234541 | 51 | 215 | 1.0 | 4.0 | 0.00 | 0.56 | 0.19 | 48 | 1009.1 |
| 20260503234011 | 51 | 205 | 1.0 | 4.0 | 0.00 | 0.56 | 0.19 | 48 | 1009.0 |
| 20260503233510 | 51 | 241 | 1.0 | 5.0 | 0.00 | 0.56 | 0.19 | 48 | 1009.0 |
| 20260503233017 | 51 | 226 | 1.0 | 5.0 | 0.00 | 0.56 | 0.19 | 48 | 1008.8 |
| 20260503232507 | 51 | 217 | 1.0 | 3.0 | 0.00 | 0.56 | 0.19 | 51 | 1008.7 |
| 20260503232007 | 51 | 214 | 1.0 | 3.0 | 0.00 | 0.57 | 0.19 | 50 | 1008.5 |
| 20260503231526 | 52 | 222 | 1.0 | 8.0 | 0.00 | 0.57 | 0.19 | 49 | 1008.4 |
| 20260503231008 | 52 | 213 | 2.0 | 8.0 | 0.00 | 0.57 | 0.19 | 48 | 1008.3 |
| 20260503230515 | 52 | 213 | 1.0 | 4.0 | 0.00 | 0.57 | 0.19 | 48 | 1008.2 |
| 20260503230006 | 52 | 205 | 2.0 | 7.0 | 0.00 | 0.57 | 0.19 | 48 | 1008.1 |
| 20260503225503 | 52 | 198 | 3.0 | 7.0 | 0.00 | 0.57 | 0.19 | 47 | 1008.0 |
| 20260503225003 | 52 | 217 | 4.0 | 7.0 | 0.00 | 0.57 | 0.19 | 47 | 1007.9 |
| 20260503224512 | 52 | 213 | 1.0 | 5.0 | 0.00 | 0.57 | 0.19 | 46 | 1007.8 |
| 20260503224006 | 52 | 237 | 1.0 | 5.0 | 0.00 | 0.57 | 0.19 | 48 | 1007.7 |
| 20260503223509 | 52 | 170 | 2.0 | 4.0 | 0.00 | 0.57 | 0.19 | 49 | 1007.7 |
| 20260503223014 | 52 | 229 | 1.0 | 4.0 | 0.00 | 0.57 | 0.19 | 48 | 1007.6 |
| 20260503222506 | 53 | 217 | 1.0 | 6.0 | 0.00 | 0.57 | 0.19 | 47 | 1007.5 |
| 20260503222007 | 53 | 236 | 1.0 | 6.0 | 0.00 | 0.57 | 0.19 | 47 | 1007.5 |
| 20260503221523 | 53 | 210 | 3.0 | 6.0 | 0.00 | 0.57 | 0.19 | 47 | 1007.5 |
| 20260503221013 | 53 | 210 | 1.0 | 4.0 | 0.00 | 0.57 | 0.19 | 47 | 1007.3 |
| 20260503220508 | 53 | 235 | 1.0 | 4.0 | 0.00 | 0.57 | 0.19 | 49 | 1007.3 |
| 20260503220010 | 53 | 196 | 2.0 | 6.0 | 0.00 | 0.57 | 0.19 | 46 | 1007.2 |
| 20260503215503 | 53 | 210 | 2.0 | 6.0 | 0.00 | 0.57 | 0.19 | 47 | 1007.2 |
| 20260503215004 | 53 | 206 | 3.0 | 5.0 | 0.00 | 0.57 | 0.19 | 47 | 1007.0 |
| 20260503214505 | 53 | 225 | 2.0 | 5.0 | 0.00 | 0.57 | 0.19 | 48 | 1007.0 |
| 20260503214003 | 53 | 249 | 1.0 | 5.0 | 0.00 | 0.57 | 0.19 | 49 | 1007.0 |
| 20260503213505 | 53 | 256 | 1.0 | 4.0 | 0.00 | 0.57 | 0.19 | 51 | 1006.9 |
| 20260503213012 | 53 | 213 | 2.0 | 3.0 | 0.00 | 0.57 | 0.19 | 53 | 1006.8 |
| 20260503212507 | 53 | 219 | 1.0 | 3.0 | 0.00 | 0.57 | 0.19 | 51 | 1006.8 |
| 20260503212007 | 53 | 219 | 0.0 | 4.0 | 0.00 | 0.57 | 0.19 | 52 | 1006.7 |
| 20260503211519 | 53 | 281 | 1.0 | 4.0 | 0.00 | 0.57 | 0.19 | 50 | 1006.7 |
| 20260503211011 | 53 | 216 | 1.0 | 3.0 | 0.00 | 0.57 | 0.19 | 51 | 1006.7 |
| 20260503210508 | 53 | 233 | 1.0 | 3.0 | 0.00 | 0.57 | 0.19 | 51 | 1006.5 |
| 20260503210024 | 53 | 243 | 2.0 | 5.0 | 0.00 | 0.57 | 0.19 | 51 | 1006.5 |
| 20260503205507 | 53 | 219 | 1.0 | 5.0 | 0.00 | 0.57 | 0.19 | 50 | 1006.4 |
| 20260503205009 | 53 | 229 | 1.0 | 5.0 | 0.00 | 0.57 | 0.19 | 51 | 1006.3 |
| 20260503204506 | 53 | 257 | 1.0 | 5.0 | 0.00 | 0.57 | 0.19 | 53 | 1006.3 |
| 20260503204009 | 53 | 227 | 1.0 | 3.0 | 0.00 | 0.57 | 0.19 | 54 | 1006.3 |
| 20260503203504 | 53 | 224 | 1.0 | 3.0 | 0.00 | 0.57 | 0.19 | 54 | 1006.2 |
| 20260503203022 | 53 | 203 | 1.0 | 3.0 | 0.00 | 0.57 | 0.19 | 53 | 1006.2 |
| 20260503202506 | 53 | 218 | 1.0 | 6.0 | 0.00 | 0.57 | 0.19 | 52 | 1006.2 |
| 20260503202009 | 53 | 228 | 2.0 | 6.0 | 0.00 | 0.57 | 0.19 | 51 | 1006.2 |
| 20260503201518 | 54 | 217 | 2.0 | 5.0 | 0.00 | 0.57 | 0.19 | 51 | 1006.1 |
| 20260503201011 | 54 | 223 | 1.0 | 6.0 | 0.00 | 0.57 | 0.19 | 52 | 1006.0 |
| 20260503200508 | 54 | 219 | 2.0 | 6.0 | 0.00 | 0.57 | 0.19 | 51 | 1005.9 |
| 20260503200023 | 54 | 238 | 2.0 | 6.0 | 0.00 | 0.57 | 0.19 | 50 | 1005.8 |
| 20260503195511 | 54 | 227 | 3.0 | 6.0 | 0.00 | 0.57 | 0.19 | 53 | 1005.9 |
| 20260503195009 | 54 | 212 | 2.0 | 7.0 | 0.00 | 0.57 | 0.19 | 52 | 1005.8 |
| 20260503194526 | 54 | 195 | 2.0 | 7.0 | 0.00 | 0.57 | 0.19 | 53 | 1005.8 |
| 20260503194010 | 53 | 259 | 1.0 | 6.0 | 0.00 | 0.57 | 0.19 | 53 | 1005.8 |
| 20260503193513 | 54 | 207 | 2.0 | 6.0 | 0.00 | 0.57 | 0.19 | 53 | 1005.8 |
| 20260503193008 | 54 | 220 | 2.0 | 5.0 | 0.00 | 0.57 | 0.19 | 54 | 1005.8 |
| 20260503192505 | 54 | 220 | 1.0 | 6.0 | 0.00 | 0.57 | 0.19 | 54 | 1005.8 |
| 20260503192005 | 55 | 258 | 3.0 | 6.0 | 0.00 | 0.57 | 0.19 | 53 | 1005.9 |
| 20260503191520 | 55 | 200 | 1.0 | 4.0 | 0.00 | 0.57 | 0.19 | 51 | 1005.8 |
| 20260503191009 | 55 | 243 | 1.0 | 4.0 | 0.00 | 0.57 | 0.19 | 55 | 1005.9 |
| 20260503190508 | 54 | 242 | 1.0 | 5.0 | 0.00 | 0.57 | 0.19 | 56 | 1005.9 |
| 20260503190020 | 54 | 208 | 2.0 | 7.0 | 0.00 | 0.57 | 0.19 | 56 | 1005.9 |
| 20260503185508 | 53 | 231 | 1.0 | 7.0 | 0.00 | 0.57 | 0.19 | 55 | 1006.0 |
| 20260503185006 | 53 | 224 | 2.0 | 7.0 | 0.00 | 0.57 | 0.19 | 56 | 1006.0 |
| 20260503184523 | 53 | 231 | 3.0 | 7.0 | 0.00 | 0.57 | 0.19 | 56 | 1006.1 |
| 20260503184009 | 53 | 223 | 3.0 | 9.0 | 0.00 | 0.57 | 0.19 | 55 | 1006.1 |
| 20260503183510 | 53 | 210 | 2.0 | 9.0 | 0.00 | 0.57 | 0.19 | 57 | 1006.2 |
| 20260503183037 | 53 | 219 | 2.0 | 7.0 | 0.00 | 0.57 | 0.19 | 57 | 1006.1 |
| 20260503182510 | 54 | 256 | 1.0 | 7.0 | 0.00 | 0.57 | 0.19 | 57 | 1006.1 |
| 20260503182011 | 54 | 178 | 2.0 | 7.0 | 0.00 | 0.57 | 0.19 | 56 | 1006.1 |
| 20260503181507 | 55 | 245 | 2.0 | 8.0 | 0.00 | 0.57 | 0.19 | 56 | 1006.1 |
| 20260503181006 | 55 | 157 | 3.0 | 8.0 | 0.00 | 0.57 | 0.19 | 58 | 1006.1 |
| 20260503180504 | 55 | 220 | 1.0 | 9.0 | 0.00 | 0.57 | 0.19 | 58 | 1005.9 |
| 20260503180019 | 55 | 262 | 2.0 | 9.0 | 0.00 | 0.57 | 0.19 | 60 | 1005.9 |
| 20260503175507 | 55 | 208 | 2.0 | 9.0 | 0.00 | 0.57 | 0.19 | 60 | 1005.9 |
| 20260503175007 | 54 | 202 | 2.0 | 7.0 | 0.00 | 0.57 | 0.19 | 62 | 1005.8 |
| 20260503174519 | 53 | 207 | 3.0 | 7.0 | 0.00 | 0.57 | 0.19 | 62 | 1005.9 |
| 20260503174008 | 53 | 221 | 2.0 | 7.0 | 0.00 | 0.57 | 0.19 | 63 | 1005.9 |
| 20260503173512 | 54 | 197 | 1.0 | 7.0 | 0.00 | 0.57 | 0.19 | 65 | 1005.9 |
| 20260503173022 | 54 | 241 | 3.0 | 7.0 | 0.00 | 0.57 | 0.19 | 65 | 1005.8 |
| 20260503172509 | 54 | 197 | 2.0 | 9.0 | 0.00 | 0.57 | 0.19 | 67 | 1005.8 |
| 20260503172007 | 54 | 188 | 3.0 | 9.0 | 0.00 | 0.57 | 0.19 | 69 | 1005.7 |
| 20260503171528 | 54 | 271 | 4.0 | 10.0 | 0.00 | 0.57 | 0.19 | 67 | 1005.8 |
| 20260503171007 | 53 | 212 | 4.0 | 10.0 | 0.00 | 0.57 | 0.19 | 65 | 1005.7 |
| 20260503170510 | 54 | 214 | 4.0 | 10.0 | 0.00 | 0.57 | 0.19 | 68 | 1005.8 |
| 20260503151010 | 54 | 254 | 3.0 | 10.0 | 0.00 | 0.57 | 0.19 | 63 | 1005.1 |
| 20260503150509 | 54 | 231 | 1.0 | 6.0 | 0.00 | 0.57 | 0.19 | 69 | 1005.2 |
| 20260503131010 | 49 | 229 | 2.0 | 7.0 | 0.00 | 0.57 | 0.19 | 84 | 1005.3 |
| 20260503130508 | 49 | 233 | 2.0 | 5.0 | 0.00 | 0.57 | 0.19 | 83 | 1005.2 |
| 20260503110510 | 44 | 231 | 0.0 | 2.0 | 0.00 | 0.57 | 0.19 | 95 | 1006.1 |
| 20260503090504 | 44 | 224 | 0.0 | 2.0 | 0.01 | 0.56 | 0.18 | 94 | 1006.1 |
| 20260503081532 | 44 | 227 | 0.0 | 2.0 | 0.01 | 0.55 | 0.17 | 94 | 1006.9 |
| 20260503081006 | 45 | 227 | 0.0 | 3.0 | 0.01 | 0.55 | 0.17 | 94 | 1007.1 |
| 20260503080511 | 45 | 227 | 0.0 | 3.0 | 0.01 | 0.55 | 0.17 | 94 | 1007.2 |
| 20260503072507 | 47 | 229 | 0.0 | 3.0 | 0.03 | 0.54 | 0.16 | 95 | 1007.4 |
| 20260503072010 | 47 | 257 | 0.0 | 2.0 | 0.04 | 0.54 | 0.16 | 95 | 1007.3 |
| 20260503071522 | 48 | 224 | 0.0 | 2.0 | 0.04 | 0.54 | 0.16 | 95 | 1007.4 |
| 20260503071009 | 48 | 224 | 0.0 | 2.0 | 0.04 | 0.54 | 0.16 | 95 | 1007.4 |
| 20260503070508 | 48 | 224 | 0.0 | 2.0 | 0.05 | 0.54 | 0.16 | 95 | 1007.4 |
| 20260503055007 | 48 | 226 | 0.0 | 2.0 | 0.06 | 0.47 | 0.09 | 96 | 1008.5 |
| 20260503054528 | 48 | 226 | 0.0 | 2.0 | 0.05 | 0.46 | 0.08 | 96 | 1008.6 |
| 20260503054011 | 48 | 226 | 0.0 | 2.0 | 0.04 | 0.45 | 0.07 | 96 | 1008.7 |
| 20260503053509 | 48 | 226 | 0.0 | 2.0 | 0.04 | 0.44 | 0.06 | 96 | 1008.8 |
| 20260503053028 | 48 | 234 | 0.0 | 2.0 | 0.04 | 0.44 | 0.06 | 96 | 1008.9 |
| 20260503052511 | 48 | 270 | 0.0 | 2.0 | 0.03 | 0.43 | 0.05 | 96 | 1008.9 |
| 20260503052008 | 48 | 312 | 0.0 | 2.0 | 0.04 | 0.43 | 0.05 | 96 | 1009.0 |
| 20260503051518 | 48 | 312 | 0.0 | 2.0 | 0.03 | 0.42 | 0.04 | 95 | 1009.0 |
| 20260503051006 | 48 | 312 | 0.0 | 2.0 | 0.03 | 0.42 | 0.04 | 95 | 1009.1 |
| 20260503050507 | 48 | 312 | 0.0 | 2.0 | 0.04 | 0.42 | 0.04 | 95 | 1009.2 |
| 20260503050012 | 48 | 312 | 0.0 | 2.0 | 0.03 | 0.41 | 0.03 | 95 | 1009.5 |
| 20260503045504 | 48 | 312 | 0.0 | 0.0 | 0.03 | 0.41 | 0.03 | 95 | 1009.5 |
| 20260503045010 | 48 | 312 | 0.0 | 0.0 | 0.04 | 0.41 | 0.03 | 95 | 1009.3 |
| 20260503044507 | 48 | 312 | 0.0 | 2.0 | 0.04 | 0.41 | 0.03 | 95 | 1009.6 |
| 20260503044003 | 48 | 312 | 0.0 | 2.0 | 0.04 | 0.41 | 0.03 | 95 | 1009.7 |
| 20260503043503 | 48 | 312 | 0.0 | 2.0 | 0.04 | 0.40 | 0.02 | 95 | 1009.7 |
| 20260503043011 | 48 | 312 | 0.0 | 1.0 | 0.04 | 0.40 | 0.02 | 95 | 1009.8 |
| 20260503042506 | 48 | 312 | 0.0 | 1.0 | 0.04 | 0.40 | 0.02 | 95 | 1009.7 |
| 20260503042007 | 48 | 312 | 0.0 | 0.0 | 0.04 | 0.39 | 0.01 | 95 | 1009.8 |
| 20260503041514 | 48 | 312 | 0.0 | 0.0 | 0.04 | 0.39 | 0.01 | 95 | 1009.8 |
| 20260503041008 | 48 | 312 | 0.0 | 0.0 | 0.05 | 0.39 | 0.01 | 95 | 1009.9 |
| 20260503040508 | 48 | 312 | 0.0 | 0.0 | 0.05 | 0.38 | 0.00 | 95 | 1009.8 |
| 20260503040020 | 48 | 312 | 0.0 | 0.0 | 0.05 | 0.38 | 0.00 | 95 | 1009.9 |
| 20260503035508 | 48 | 312 | 0.0 | 0.0 | 0.07 | 0.38 | 0.38 | 95 | 1009.9 |
| 20260503035007 | 48 | 312 | 0.0 | 0.0 | 0.07 | 0.37 | 0.37 | 95 | 1009.9 |
| 20260503034504 | 48 | 312 | 0.0 | 0.0 | 0.08 | 0.37 | 0.37 | 95 | 1009.9 |
| 20260503034005 | 48 | 312 | 0.0 | 0.0 | 0.09 | 0.37 | 0.37 | 95 | 1009.9 |
| 20260503033507 | 48 | 312 | 0.0 | 0.0 | 0.08 | 0.36 | 0.36 | 95 | 1009.9 |
| 20260503033008 | 48 | 312 | 0.0 | 0.0 | 0.09 | 0.36 | 0.36 | 95 | 1010.1 |
| 20260503032507 | 48 | 312 | 0.0 | 1.0 | 0.09 | 0.36 | 0.36 | 95 | 1010.0 |
| 20260503032004 | 48 | 312 | 0.0 | 2.0 | 0.08 | 0.35 | 0.35 | 95 | 1010.1 |
| 20260503031511 | 48 | 312 | 0.0 | 2.0 | 0.09 | 0.35 | 0.35 | 95 | 1010.2 |
| 20260503031011 | 48 | 312 | 0.0 | 2.0 | 0.09 | 0.34 | 0.34 | 95 | 1010.1 |
| 20260503030504 | 48 | 312 | 0.0 | 2.0 | 0.08 | 0.33 | 0.33 | 95 | 1009.9 |
| 20260503030019 | 48 | 312 | 0.0 | 2.0 | 0.10 | 0.33 | 0.33 | 95 | 1010.0 |
| 20260503025508 | 48 | 312 | 0.0 | 2.0 | 0.09 | 0.31 | 0.31 | 95 | 1010.2 |
| 20260503025011 | 48 | 312 | 0.0 | 2.0 | 0.10 | 0.30 | 0.30 | 95 | 1010.1 |
| 20260503024518 | 48 | 312 | 0.0 | 2.0 | 0.10 | 0.29 | 0.29 | 95 | 1010.1 |
| 20260503024011 | 48 | 312 | 0.0 | 2.0 | 0.10 | 0.28 | 0.28 | 95 | 1010.1 |
| 20260503023508 | 48 | 312 | 0.0 | 2.0 | 0.11 | 0.28 | 0.28 | 95 | 1010.3 |
| 20260503023004 | 48 | 312 | 0.0 | 2.0 | 0.11 | 0.27 | 0.27 | 95 | 1010.3 |
| 20260503022508 | 48 | 312 | 0.0 | 0.0 | 0.13 | 0.27 | 0.27 | 95 | 1010.6 |
| 20260503022002 | 48 | 312 | 0.0 | 0.0 | 0.14 | 0.27 | 0.27 | 95 | 1010.8 |
| 20260503021511 | 48 | 312 | 0.0 | 0.0 | 0.14 | 0.26 | 0.26 | 95 | 1010.8 |
| 20260503021004 | 48 | 312 | 0.0 | 0.0 | 0.14 | 0.25 | 0.25 | 94 | 1010.8 |
| 20260503020504 | 48 | 312 | 0.0 | 1.0 | 0.15 | 0.25 | 0.25 | 94 | 1010.9 |
| 20260503020014 | 48 | 312 | 0.0 | 1.0 | 0.13 | 0.23 | 0.23 | 94 | 1011.0 |
| 20260503015507 | 48 | 312 | 0.0 | 1.0 | 0.13 | 0.22 | 0.22 | 94 | 1011.1 |